Alcoa, TN

5:11 AM EST on January 22, 2017 (GMT -0500)
McGhee Tyson

Weather History for KTYS - May, 2013

Change the Weather History Date:

Wednesday, May 8, 2013

  Actual Average Record
Temperature  
Mean Temperature 66 °F 65 °F  
Max Temperature 75 °F 76 °F 93 °F (1940)
Min Temperature 56 °F 54 °F 34 °F (1989)
Degree Days  
Heating Degree Days 0 3  
Month to date heating degree days 34 26  
Since 1 July heating degree days 3590 3601  
Cooling Degree Days 1 3  
Month to date cooling degree days 8 17  
Year to date cooling degree days 39 54  
Growing Degree Days 15 (Base 50)    
Moisture  
Dew Point 56 °F    
Average Humidity 73    
Maximum Humidity 93    
Minimum Humidity 53    
Precipitation  
Precipitation 0.02 in 0.15 in 1.23 in (1876)
Month to date precipitation 2.02 1.20  
Year to date precipitation 29.92 18.13  
Snow  
Snow 0.00 in 0.00 in - ()
Month to date snowfall 0.0 0.0  
Since 1 July snowfall 3.8 6.5  
Snow Depth 0.00 in    
Sea Level Pressure  
Sea Level Pressure 29.99 in    
Wind  
Wind Speed 7 mph (SSW)    
Max Wind Speed 16 mph    
Max Gust Speed 22 mph    
Visibility 10 miles    
Events Rain , Thunderstorm    
T = Trace of Precipitation, MM = Missing Value Source: NWS Daily Summary

Daily Weather History Graph

Daily Weather History Graph

Search for Another Location

Airport or City:

Trip Planner

Search our weather history database for the weather conditions in past years. The results will help you decide how hot, cold, wet, or windy it might be!

Date:

Astronomy

May. 08, 2013 Rise Set
Actual Time 6:36 AM EDT 8:28 PM EDT
Civil Twilight 6:08 AM EDT 8:56 PM EDT
Nautical Twilight 5:34 AM EDT 9:30 PM EDT
Astronomical Twilight 4:58 AM EDT 10:07 PM EDT
Moon 5:41 AM EDT (5/8) 7:27 PM EDT (5/8)
Length of Visible Light 14h 48m
Length of Day
13h 52m
Waning Crescent, 2% of the Moon is Illuminated
May 8
Waning Crescent
May 9
New
May 18
First Quarter
May 25
Full
May 31
Last Quarter

Hourly Weather History & Observations

Time (EDT) Temp. Dew Point Humidity Pressure Visibility Wind Dir Wind Speed Gust Speed Precip Events Conditions
12:53 AM 57.9 °F 54.0 °F 87% 29.95 in 10.0 mi SSW 5.8 mph - 0.00 in   Overcast
1:53 AM 57.0 °F 54.0 °F 89% 29.94 in 10.0 mi SSW 3.5 mph - 0.00 in   Overcast
2:53 AM 57.0 °F 54.0 °F 89% 29.93 in 10.0 mi SSW 6.9 mph - 0.00 in Rain Light Rain
3:53 AM 57.0 °F 54.0 °F 89% 29.93 in 10.0 mi SW 6.9 mph - 0.00 in Rain Light Rain
4:53 AM 57.0 °F 55.0 °F 93% 29.93 in 10.0 mi SSW 6.9 mph - 0.00 in Rain Light Rain
5:53 AM 57.0 °F 54.0 °F 89% 29.94 in 10.0 mi SSW 5.8 mph - 0.00 in   Overcast
6:53 AM 57.0 °F 54.0 °F 89% 29.96 in 10.0 mi SW 5.8 mph - N/A   Overcast
7:53 AM 57.0 °F 54.0 °F 89% 29.98 in 10.0 mi SW 10.4 mph - N/A   Overcast
8:53 AM 59.0 °F 54.0 °F 83% 30.00 in 10.0 mi SW 11.5 mph - N/A   Mostly Cloudy
9:53 AM 60.1 °F 55.0 °F 83% 30.01 in 10.0 mi SW 10.4 mph - N/A   Overcast
10:53 AM 62.1 °F 55.9 °F 80% 30.01 in 9.0 mi SSW 11.5 mph - N/A   Mostly Cloudy
11:53 AM 64.9 °F 55.9 °F 73% 30.02 in 10.0 mi WSW 8.1 mph - N/A   Overcast
12:53 PM 68.0 °F 57.9 °F 70% 30.01 in 10.0 mi WSW 8.1 mph - N/A   Mostly Cloudy
1:53 PM 66.9 °F 57.0 °F 70% 30.00 in 10.0 mi SW 15.0 mph - 0.00 in Rain Light Rain
2:53 PM 71.1 °F 59.0 °F 66% 29.99 in 10.0 mi SW 16.1 mph 21.9 mph 0.00 in   Mostly Cloudy
3:53 PM 70.0 °F 55.9 °F 61% 29.99 in 10.0 mi WSW 10.4 mph - N/A   Overcast
4:53 PM 73.0 °F 55.0 °F 53% 29.97 in 10.0 mi West 4.6 mph - N/A   Mostly Cloudy
5:53 PM 73.0 °F 55.0 °F 53% 29.97 in 10.0 mi Calm Calm - N/A   Mostly Cloudy
6:42 PM 66.2 °F 60.8 °F 83% 29.99 in 10.0 mi South 6.9 mph - 0.02 in Thunderstorm Thunderstorm
6:53 PM 66.9 °F 61.0 °F 81% 29.97 in 10.0 mi SSW 4.6 mph - 0.02 in Rain , Thunderstorm Light Thunderstorms and Rain
7:24 PM 68.0 °F 59.0 °F 73% 30.00 in 10.0 mi South 3.5 mph - 0.00 in   Mostly Cloudy
7:53 PM 64.9 °F 60.1 °F 84% 29.99 in 10.0 mi South 4.6 mph - 0.00 in   Mostly Cloudy
8:53 PM 63.0 °F 59.0 °F 87% 30.01 in 10.0 mi SSW 6.9 mph - N/A Thunderstorm Thunderstorm
9:10 PM 62.6 °F 59.0 °F 88% 30.03 in 10.0 mi SSW 6.9 mph - N/A   Mostly Cloudy
9:25 PM 62.6 °F 57.2 °F 82% 30.03 in 10.0 mi SSW 4.6 mph - 0.00 in Rain , Thunderstorm Light Thunderstorms and Rain
9:53 PM 64.0 °F 57.9 °F 80% 30.04 in 10.0 mi North 12.7 mph - 0.00 in Thunderstorm Thunderstorm
10:20 PM 62.6 °F 57.2 °F 82% 30.06 in 10.0 mi NE 5.8 mph - N/A   Overcast
10:53 PM 62.1 °F 57.9 °F 86% 30.05 in 10.0 mi East 5.8 mph - N/A   Scattered Clouds
11:53 PM 60.1 °F 57.0 °F 90% 30.05 in 10.0 mi Calm Calm - N/A   Partly Cloudy